Simultaneous Nadir Overpasses (SNOs) Predictions

Prediction of SNOs between GOES-14 and AQUA Satellite Orbit:

Table of predicted SNOs for the next 14.0 days since TLE Epoch: 5/6/2023
Index Date Time (GOES-14) GOES-14 Lat,Lon AQUA Lat,Lon Distance(km) Time Diff (sec)
1 05/06/2023 08:53:04 0.15,-108.37 -0.19,-106.65 194.29 80
2 05/06/2023 21:14:02 -0.13,-108.34 -0.83,-111.74 386.60 80
3 05/08/2023 21:02:45 -0.13,-108.35 -0.13,-108.33 1.72 80
4 05/10/2023 20:48:48 -0.14,-108.36 0.61,-104.93 390.22 80
5 05/11/2023 09:09:36 0.12,-108.41 0.47,-109.97 178.31 80
6 05/13/2023 08:52:58 0.14,-108.42 -0.26,-106.56 210.39 80
7 05/13/2023 21:13:53 -0.12,-108.37 -0.84,-111.63 371.99 80
8 05/15/2023 21:02:35 -0.12,-108.38 -0.12,-108.22 18.07 80
9 05/17/2023 20:48:36 -0.12,-108.40 0.65,-104.82 407.90 80
10 05/18/2023 09:09:23 0.10,-108.46 0.41,-109.86 158.65 80
